[ hide orbit diagram ]
For accurate long-term ephemerides, please instead use our Horizons system.This orbit viewer was implemented using two-body methods, and hence should not be used for determining accurate long-term trajectories (over several years or decades) or planetary encounter circumstances.
Orbital Elements at Epoch 2459000.5 (2020-May-31.0) TDB
Reference: JPL 16 (heliocentric ecliptic J2000)
Element | Value | Uncertainty (1-sigma) | Units |
e | .1383803398905883 | 4.1623e-08 | |
a | 2.68324057363688 | 1.9034e-08 | au |
q | 2.311932831048791 | 1.1434e-07 | au |
i | 13.91880068843789 | 4.562e-06 | deg |
node | 171.5159590631179 | 1.9614e-05 | deg |
peri | 269.5183605085799 | 2.7443e-05 | deg |
M | 158.4108867588621 | 2.1576e-05 | deg |
tp | 2458294.067990271637 (2018-Jun-24.56799027) | 9.2433e-05 | TDB |
period | 1605.416955271121 4.40 | 1.7082e-05 4.677e-08 | d yr |
n | .2242408109731241 | 2.386e-09 | deg/d |
Q | 3.054548316224968 | 2.1668e-08 | au |
|
| | Orbit Determination Parameters
Additional Information
|
[ show covariance matrix ]
Physical Parameter Table
Parameter |
Symbol |
Value |
Units |
Sigma |
Reference |
Notes |
absolute magnitude |
H |
16.2 |
|
n/a |
MPO326040 |
|
diameter |
diameter |
2.157 |
km |
0.355 |
urn:nasa:pds:neowise_diameters_albedos::2.0[mainbelt] (http://adsabs.harvard.edu/abs/2011ApJ...741...68M) |
|
rotation period |
rot_per |
7.22 |
h |
n/a |
LCDB (Rev. 2020-October); Warner et al., 2009 |
Result based on less than full coverage, so that the period may be wrong by 30 percent or so. Published Reference List: [Erasmus, N.; McNeill, A.; Mommert, N.; Trilling, D.E.; et al. (2019) Ap. J. Suppl. Series 242, A15.] |
geometric albedo |
albedo |
0.166 |
|
0.075 |
urn:nasa:pds:neowise_diameters_albedos::2.0[mainbelt] (http://adsabs.harvard.edu/abs/2011ApJ...741...68M) |
|
|
233392 (2006 FP6) Discovered 2006-Mar-23 by Mt. Lemmon Survey at Mount Lemmon |
Reference: 20100228/Numbers.arc | Last Updated: 2010-03-03 |
|
[ hide close-approach data ]
Close-Approach Data ...sorted by Date/Time (TDB)
|
Date/Time (TDB) |
Time Uncertainty (days_HH:MM) |
Body |
Nominal Distance (au) |
Minimum Distance (au) |
Maximum Distance (au) |
V-relative (km/s) |
V-infinity (km/s) |
JD (TDB) |
Time Uncertainty (minutes) |
Semi-major axis (km) |
Semi-minor axis (km) |
range-LOV angle (deg) |
N-sigma |
BP |
Orbit Ref. |
Reference |
Modified |
2080-Sep-25 08:27 |
00:03 |
Juno |
0.0333157315748341 |
0.0333133075492174 |
0.0333181645380536 |
2.56734985566333 |
2.56734971342666 |
2481032.851884171 |
2.62568573578337 |
1108.85066997207 |
75.8020610789643 |
-85.1465803721415 |
65359.4372227596 |
T |
16 |
CATAB v2.0f-lin.ifort 2020-Nov-12 01:53:48 |
2020-Nov-12 01:53 |
|
|